Regional Weather Roundup
Issued by NWS Newport/Morehead, NC

Current Version | Previous Version | Graphics & Text | Print | Product List | Glossary On
Versions: 1 2 3 4 5 6 7 8 9 10 11 12 13 14 15 16 17 18 19 20 21 22 23 24 25 26 27 28 29 30 31 32 33 34 35 36 37 38 39 40 41 42 43 44 45 46 47 48 49 50
000 ASUS42 KMHX 051524 RWRMHX WEATHER ROUNDUP FOR EASTERN NORTH CAROLINA NATIONAL WEATHER SERVICE NEWPORT/MOREHEAD CITY NC 1000 AM EST MON DEC 05 2016 NOTE: "FAIR" INDICATES FEW OR NO CLOUDS BELOW 12,000 FEET WITH NO SIGNIFICANT WEATHER AND/OR OBSTRUCTIONS TO VISIBILITY NCZ015>017-031-032-045>047-102-103-051600- NORTH COAST CITY SKY/WX TMP DP RH WIND PRES REMARKS EDENTON CLOUDY 51 48 89 CALM 30.01S ELIZABETH CITY MOSUNNY 50 48 93 NW6 29.99R KITTY HAWK CLOUDY 52 52 100 N7 29.96R MANTEO CLOUDY 51 51 100 N13G20 29.98R $$ NCZ045>047-081-094-103-104-051600- CENTRAL COAST CITY SKY/WX TMP DP RH WIND PRES REMARKS FRISCO CLOUDY 53 52 96 VRB6 29.96R $$ NCZ095-097-098-100-101-051600- SOUTHERN COAST CITY SKY/WX TMP DP RH WIND PRES REMARKS BEAUFORT CLOUDY 53 51 93 N14 29.99R CEDAR ISLAND NOT AVBL JACKSONVILLE CLOUDY 49 48 97 NW12 30.01R PINEY ISLAND CLOUDY N/A N/A N/A NW13 29.98R WILMINGTON CLOUDY 50 49 96 NW8 30.02R $$ NCZ011>013-027>030-043-044-078>080-089-090>093-098-051600- COASTAL PLAIN CITY SKY/WX TMP DP RH WIND PRES REMARKS AHOSKIE CLOUDY 45 44 97 CALM 30.02R CLINTON MOSUNNY 48 46 91 N5 30.04R ELIZABETHTOWN PTSUNNY 48 48 100 N3 30.03F GOLDSBORO NOT AVBL GREENVILLE CLOUDY 46 46 100 N3 30.04S HAVELOCK CLOUDY 50 48 93 N13 30.00R KENANSVILLE CLOUDY 50 46 87 N9 30.03R KINSTON PTSUNNY 48 48 100 N7 30.03R NEW BERN CLOUDY 48 46 93 N9 30.01S RICHLANDS CLOUDY 49 47 93 VRB7 30.02R ROCKY MOUNT CLOUDY 47 46 97 W3 30.03R WASHINGTON PTSUNNY 50 46 87 N5 30.03R WHITEVILLE CLOUDY 47 46 95 N5 30.02F $$ AMZ130-135-150-152-154-156-158-170-250-252-270-ANZ085-086-088-633-658-670-051600- MARINE OBSERVATIONS STATION/POSITION TIME TEMP WIND PRES WAVE SWELL AIR SEA DIR/SP/G HT/PER HT/PER (UTC) (F) (DEG/KT/KT) (MB) (FT/S) (FT/S) CHESAPEAKE LIGHT NOT AVBL 64 E VA BEACH 1450 56 60 10/ 21/ 25 1013.2 4/ 4 2/ 8 DUCK 1500 52 54 10/ 16/ 18 1014.2 2 E DUCK NOT AVBL OREGON INLET 1500 54 56 350/ 12/ 17 1014.4 13E OREGON INLT NOT AVBL HATTERAS CG 1500 52 60 330/ 16/ 18 1014.1 DIAMOND BUOY 1450 60 74 340/ 19/ 25 1013.2 6/ 7 5/ 7 CAPE LOOKOUT 1500 53 340/ 13/ 15 1014.8 BEAUFORT LAB 1500 51 55 350/ 11/ 14 1014.3 30 SE NEW RVR IN 1508 52 71 340/ 16/ 23 1014.6 30 SE NEW RVR IN NOT AVBL 27 SE WRIGHTSVLE 1508 57 67 340/ 16/ 23 1014.2 5 SE WRIGHTSVLE 1508 49 63 330/ 10/ 16 1016.2 225 S CAPE HAT 1450 72 73 200/ 17/ 21 1017.8 5/ 5 2/ 8 41 SE CHARLESTON 1450 74 74 250/ 16/ 19 1014.5 7/ 7 2/11 $$

USA.gov is the U.S. government's official web portal to all federal, state and local government web resources and services.